User: anonymous
Location: Prairie State College
(41.5244°N, 87.6382°W)
Time: 23:17:46
(UTC-05:00)
Language:

Cosmos 1140 Rocket - Orbit

View from above orbital plane
View from above orbital plane
View from above satellite
View from above satellite

Ground track
Ground track

The orbit data is extracted from the following two-line orbital elements,

1 11574U 79089B   14265.14061302  .00000267  00000-0  92333-4 0  8455
2 11574 074.0689 262.7575 0015010 058.4450 008.3684 14.40262623833307
Epoch (UTC): 22 September 2014 03:22:28
Eccentricity: 0.0015010
inclination: 74.0689°
perigee height: 747 km
apogee height: 768 km
right ascension of ascending node: 262.7575°
argument of perigee: 58.4450°
revolutions per day: 14.40262623
mean anomaly at epoch: 8.3684°
orbit number at epoch: 83330

The dashed part of the orbit path shows where the satellite is in the earth's shadow,  

DLR